Temperature
12 12 11 11 11 10 10 10 10 10 11 11 11 11 11 11 11 12 12 12 12 13 13 13 13 14 14 14 14 14 15 15 15 15 15 15 16 16 16 16 16 16 16
12 12 11 11 11 11 10 10 10 10 10 10 10 10 11 11 11 11 12 12 12 12 13 13 13 13 14 14 14 14 14 14 14 14 15 15 15 15 15 15 16 16 16
13 12 12 11 11 11 10 10 10 10 10 10 10 10 10 10 11 11 11 11 12 12 12 12 13 13 13 14 14 14 14 14 14 14 14 14 15 15 15 15 15 15 15
13 12 12 11 11 10 10 10 10 10 10 10 10 10 10 10 10 11 11 11 11 12 12 12 12 13 13 13 13 13 14 14 14 14 14 14 14 14 14 14 14 14 14
13 12 12 11 11 10 10 10 9 9 10 9 10 10 10 10 10 10 11 11 11 11 12 12 12 12 13 13 13 13 13 13 13 13 13 13 14 14 14 14 14 14 14
13 12 12 11 11 10 10 10 9 9 9 9 9 10 10 10 10 10 10 11 11 11 12 12 12 12 12 12 13 13 13 13 13 13 13 13 13 14 14 14 14 14 13
13 12 12 11 11 10 10 10 10 9 9 9 9 10 10 10 10 10 10 10 10 11 11 12 12 12 12 12 12 13 13 13 13 13 13 13 13 14 14 13 13 13 13
13 13 12 11 11 10 10 10 10 10 9 9 10 10 10 10 10 10 10 10 10 11 11 11 12 12 12 12 12 12 12 13 13 13 13 13 13 13 14 14 13 13 13
14 13 12 12 11 11 10 10 10 10 10 10 10 10 10 10 10 10 10 10 10 10 11 11 11 11 12 12 12 12 12 12 13 13 13 13 13 13 13 13 13 13 12
14 13 13 12 12 11 11 10 10 10 10 10 10 10 10 10 10 10 10 10 10 10 11 11 11 11 12 12 12 12 12 12 12 13 13 13 13 13 13 13 13 13 12
15 14 14 13 12 12 12 11 11 10 10 10 10 10 10 10 10 10 10 10 10 10 10 11 11 11 11 12 12 12 12 12 12 12 12 12 12 12 13 13 13 13 12
15 15 14 14 13 13 12 12 11 11 10 10 10 10 10 10 10 10 10 10 10 10 10 10 11 11 11 12 12 12 12 12 12 12 12 12 12 12 12 12 12 12 12
16 15 15 14 14 13 13 12 12 11 11 11 10 10 10 10 10 10 10 10 10 10 10 11 11 11 11 12 12 12 12 12 12 12 12 12 12 12 12 12 12 12 12
16 15 15 15 14 14 14 13 12 12 11 11 11 10 10 10 10 10 10 10 10 10 10 11 11 11 11 12 12 12 12 11 11 11 12 12 12 12 12 12 12 12 11
16 16 15 15 15 15 14 14 13 13 12 12 11 11 11 10 10 11 10 10 10 10 10 11 11 11 11 11 11 12 12 11 11 11 11 11 11 11 11 11 11 11 11
16 16 15 15 15 15 15 14 14 14 13 13 12 12 11 11 11 11 11 11 10 10 10 10 11 11 11 11 11 11 11 11 11 11 11 11 11 11 11 11 11 11 11
16 16 15 15 15 15 15 15 14 14 14 13 13 12 12 12 11 11 11 11 11 11 10 10 11 11 11 11 11 11 11 11 11 11 11 11 11 11 11 11 11 11 11
15 15 15 15 15 15 15 15 14 14 14 13 13 13 12 12 12 11 11 11 11 11 10 10 11 11 11 11 11 11 11 11 11 11 11 11 11 11 11 11 11 10 10
13 13 14 14 14 14 15 15 14 14 14 14 13 13 13 12 12 12 11 11 11 11 11 11 11 11 11 11 11 11 11 11 11 11 11 11 11 11 11 10 10 10 10
12 12 13 13 13 13 13 14 14 14 14 14 13 13 13 12 12 12 12 12 11 11 11 11 11 11 11 11 11 11 11 11 11 11 11 11 11 11 10 10 10 10 10
10 10 11 11 11 11 12 12 12 13 13 13 14 13 13 12 12 12 11 11 12 12 11 11 11 11 11 11 11 11 11 11 11 11 11 11 11 11 10 10 10 10 10
8 8 9 9 9 10 10 10 11 11 12 12 13 13 13 13 12 12 12 12 12 12 12 12 11 11 11 11 11 11 11 11 11 11 11 11 11 11 10 10 10 10 10
7 7 7 7 8 8 8 9 9 10 10 11 11 12 12 12 12 12 12 12 12 12 12 12 12 12 12 11 11 11 11 11 11 11 11 11 10 10 10 10 10 10 10
6 6 6 6 6 7 7 7 8 8 9 9 10 10 11 11 11 11 12 12 12 12 12 12 12 12 12 12 11 11 11 11 11 11 11 10 10 10 10 10 10 10 9
5 5 5 5 5 5 6 6 6 6 7 7 8 8 9 10 10 10 11 11 11 11 12 12 12 12 12 12 12 12 11 11 11 11 11 10 10 10 10 10 10 9 9
4 4 4 4 4 4 4 5 5 5 5 5 6 6 7 8 8 9 9 10 10 11 11 11 12 12 12 12 12 12 12 11 11 11 10 10 10 10 10 9 9 9 9
Wind_Speed
5 5 6 6 6 6 6 7 8 8 9 9 9 9 9 8 8 7 7 7 7 7 7 8 9 10 9 10 10 10 11 11 10 6 6 6 8 9 9 12 13 13 16
5 5 6 6 6 7 7 7 8 9 9 9 9 9 9 9 8 8 8 8 8 7 7 7 8 7 9 9 9 11 10 11 10 10 7 7 8 9 9 10 9 12 13
5 5 5 6 6 7 7 7 8 8 8 9 9 9 9 9 9 9 8 8 8 7 7 7 7 7 7 7 8 9 9 9 9 9 7 6 6 7 9 9 10 7 10
5 5 5 5 6 7 7 7 8 8 8 9 9 9 9 9 9 10 9 8 8 7 7 7 7 7 7 6 7 8 8 9 9 8 7 6 6 7 8 8 9 8 8
5 5 5 5 5 6 6 7 7 8 8 8 9 9 9 9 9 12 11 9 8 8 7 6 5 5 6 6 6 6 7 8 8 8 8 7 7 7 9 8 8 7 7
4 4 4 4 5 5 6 7 7 8 8 8 9 9 9 8 11 13 12 10 8 7 6 5 4 4 3 4 5 6 6 8 9 9 8 9 10 9 8 8 8 8 6
4 4 3 4 4 5 6 6 7 8 8 8 9 9 9 9 11 13 13 10 8 7 6 5 3 2 3 3 3 6 6 7 9 9 10 11 11 11 11 11 10 9 6
4 3 3 4 4 5 5 6 7 7 8 8 8 9 8 8 10 12 14 9 7 7 6 5 4 3 3 4 2 3 3 4 6 8 9 9 9 9 11 10 10 8 7
4 4 4 4 4 5 6 6 7 7 8 8 7 8 8 8 9 11 13 7 6 7 6 5 5 4 4 5 3 2 2 2 1 3 4 5 6 9 10 9 10 10 7
5 5 5 5 5 6 6 6 6 7 7 8 7 7 8 8 8 10 12 6 6 6 5 4 4 5 6 6 4 2 2 2 2 3 4 5 7 9 12 11 11 11 8
5 6 6 7 7 7 6 6 6 7 7 8 8 7 6 6 6 7 10 7 6 6 5 5 4 5 6 5 5 3 2 3 2 2 3 4 5 6 7 7 8 9 9
6 8 8 8 8 7 7 7 7 7 7 7 7 7 5 4 4 5 8 8 9 6 5 4 4 6 5 5 3 2 2 3 2 2 3 3 4 4 5 5 6 5 5
8 9 10 10 9 9 9 9 8 7 7 7 6 6 6 5 3 4 5 7 7 5 4 5 5 5 4 1 2 2 3 2 1 1 2 3 3 5 6 7 8 9 10
10 11 10 10 10 10 8 8 8 7 7 7 6 6 6 5 4 4 5 4 4 5 4 2 3 2 1 1 0 0 1 1 0 1 2 3 4 5 6 6 7 9 8
11 11 11 10 10 10 10 9 9 9 8 8 7 6 6 6 3 4 6 6 7 6 7 4 2 1 1 0 1 1 1 1 1 2 3 4 5 5 6 6 7 6 6
10 11 9 9 9 9 9 9 12 13 10 12 12 10 8 8 5 6 8 9 9 9 7 5 3 2 1 1 1 1 1 1 2 3 4 4 5 6 6 5 6 6 8
10 11 9 9 9 9 9 10 9 10 14 15 15 15 15 11 10 10 9 9 10 8 7 5 4 4 3 2 2 2 2 2 2 3 4 4 5 6 6 6 6 7 7
11 10 10 10 9 10 10 10 9 10 9 8 12 17 17 16 14 12 9 8 8 8 7 6 6 5 4 4 4 3 3 3 3 4 4 5 5 6 6 6 7 8 8
11 9 9 9 10 10 10 10 10 11 10 10 9 9 14 14 13 13 10 9 9 8 7 7 7 7 6 6 5 5 5 5 5 5 5 6 6 6 6 6 6 8 8
10 11 11 10 10 9 9 9 10 10 11 10 10 10 8 9 9 10 10 11 10 10 9 8 8 8 8 7 6 6 6 6 7 6 6 7 7 7 8 8 8 8 8
11 12 13 10 9 9 9 10 10 10 10 10 11 10 10 10 11 12 11 11 11 11 10 10 9 9 9 8 8 9 9 8 8 8 8 8 7 7 7 7 8 8 7
12 12 12 11 11 10 10 10 10 10 11 12 11 10 11 11 12 12 12 12 12 12 11 10 10 10 10 10 10 10 10 10 10 10 9 9 9 9 9 8 9 8 8
12 13 13 12 12 12 11 10 10 10 11 11 11 11 9 10 12 13 13 13 12 12 12 11 12 11 11 11 11 11 12 12 11 11 11 11 10 10 10 10 11 11 11
13 13 13 13 13 13 13 13 12 12 12 12 12 11 11 11 12 13 13 13 13 13 13 13 14 16 18 14 12 12 13 12 12 12 14 13 12 11 11 11 12 13 12
12 12 12 12 13 13 13 13 13 14 14 13 12 12 12 12 12 12 12 13 14 14 15 15 14 16 20 21 18 15 14 14 13 12 13 13 14 14 13 13 12 12 12
11 12 11 11 12 12 13 13 13 14 14 14 14 14 14 14 14 13 13 12 13 13 15 15 17 19 20 19 21 19 17 18 18 16 13 13 14 14 14 13 15 14 14
Wind_Direction
305 316 323 333 334 332 336 340 337 337 340 343 340 337 336 333 328 321 313 307 293 279 268 264 260 249 238 229 226 225 224 222 229 222 194 191 191 201 196 201 203 196 195
294 303 314 326 328 332 338 337 335 338 339 341 341 338 339 336 333 327 318 313 304 295 282 274 271 262 246 234 227 225 223 221 221 219 201 191 197 196 193 193 194 197 194
283 295 308 320 327 333 335 337 334 337 336 338 341 340 338 336 332 327 323 317 311 300 291 282 276 264 256 243 234 228 222 220 220 219 205 192 195 189 186 188 187 183 188
277 286 303 316 324 328 335 335 336 337 335 338 338 338 338 336 336 334 329 321 315 308 297 284 276 266 257 250 242 234 224 217 212 212 205 193 190 186 184 184 181 180 179
281 287 302 312 319 326 330 331 331 332 334 337 334 336 341 340 346 340 332 322 317 315 305 291 279 279 280 266 254 241 230 220 211 207 205 195 191 185 190 185 181 170 171
285 289 298 303 317 324 330 330 331 332 335 336 333 336 336 341 345 338 331 325 324 321 318 307 288 258 256 249 252 252 246 230 217 210 208 205 200 193 185 181 176 172 174
290 292 294 298 310 320 327 326 328 329 333 333 334 333 330 342 346 340 339 327 328 332 330 327 322 321 291 253 224 228 238 236 234 224 216 214 206 195 187 187 184 177 168
285 287 287 288 297 307 314 319 322 326 328 327 329 328 326 337 348 340 333 322 332 336 338 334 330 332 347 328 288 253 246 228 227 229 229 225 212 199 191 187 174 153 129
279 276 274 275 285 297 308 316 323 323 323 325 326 324 326 333 355 342 332 328 332 336 341 348 345 340 2 327 293 279 272 256 229 243 250 231 200 181 174 168 166 160 152
269 264 260 262 271 282 295 305 313 313 314 314 317 320 323 325 352 342 334 327 332 334 334 341 12 355 342 318 287 270 263 253 226 199 198 191 185 172 172 181 174 167 153
257 254 251 252 259 269 280 287 294 303 308 312 314 313 315 322 329 340 339 331 331 327 328 336 351 359 338 324 304 298 307 295 255 211 180 176 171 170 175 180 176 170 162
248 247 248 249 253 257 260 272 281 290 296 304 310 316 316 314 321 336 333 329 325 318 321 329 350 357 340 327 314 352 314 282 239 195 168 159 155 153 147 146 140 134 135
251 249 250 251 248 250 256 262 270 274 284 299 307 313 317 320 303 259 289 305 312 309 318 337 334 331 314 299 52 352 286 255 204 179 152 137 125 124 118 111 104 101 99
261 261 258 255 253 247 245 255 262 269 274 283 293 301 309 308 307 318 320 313 294 288 294 266 239 286 309 8 6 303 336 9 58 141 126 118 118 122 123 124 123 120 111
269 267 266 261 259 259 253 247 253 256 259 266 279 284 290 295 336 343 313 318 325 327 319 291 278 262 240 134 74 51 39 93 112 124 134 136 133 128 127 132 136 133 130
275 272 269 264 259 257 259 255 231 237 237 229 241 257 264 255 268 271 283 292 301 304 294 270 260 259 261 240 186 147 140 126 132 136 137 141 142 139 134 139 148 148 144
288 282 277 269 262 256 256 259 264 240 228 236 235 234 241 252 247 253 266 280 282 282 269 263 252 244 240 230 214 197 188 165 152 145 142 143 143 143 145 147 150 149 146
311 299 289 280 271 263 258 255 256 263 259 249 231 226 230 236 239 242 247 266 261 243 253 256 249 241 235 227 216 204 191 176 169 161 154 155 154 151 151 155 158 158 154
332 324 314 298 285 275 267 259 254 254 256 259 256 225 216 225 229 232 225 240 253 254 248 247 245 240 235 230 222 211 201 193 185 180 172 170 167 164 162 164 160 154 160
340 334 325 312 299 288 277 268 261 256 254 255 253 252 224 207 226 224 219 229 239 245 245 243 240 238 234 228 221 216 210 202 195 192 185 182 177 174 171 170 168 170 176
345 344 338 328 323 313 302 289 280 271 264 261 258 252 231 231 241 242 235 230 232 236 237 237 235 231 230 228 223 218 216 209 203 200 193 189 185 182 179 177 178 179 176
351 350 349 347 341 335 325 312 301 292 283 277 272 259 210 232 247 247 243 239 236 235 234 231 231 228 224 223 222 221 218 215 208 204 200 194 190 188 186 185 183 181 180
357 356 354 353 350 345 340 335 326 316 306 297 289 281 260 246 248 249 248 246 240 236 231 227 227 226 224 223 223 223 222 218 212 207 204 199 196 195 194 192 191 189 190
359 359 357 356 355 353 350 347 342 336 328 319 310 300 289 276 267 261 258 254 246 238 232 227 227 226 223 220 221 222 225 223 216 212 209 206 202 201 200 199 199 198 198
358 358 357 356 355 353 350 349 347 346 340 334 328 321 313 303 292 281 271 263 256 248 239 232 229 228 228 223 219 219 213 210 215 214 208 209 208 206 205 204 203 202 202
349 351 351 352 352 350 349 347 345 344 342 340 337 333 327 320 312 304 293 282 271 260 253 243 236 231 227 225 223 218 203 196 201 212 213 211 211 210 208 208 207 205 205
Height
1527 1525 1522 1519 1516 1514 1511 1507 1504 1502 1499 1496 1492 1490 1487 1484 1482 1480 1478 1476 1474 1473 1472 1472 1472 1472 1473 1474 1476 1478 1481 1483 1485 1488 1490 1492 1496 1499 1503 1507 1511 1515 1519
1525 1523 1521 1518 1516 1513 1510 1507 1504 1501 1498 1495 1492 1489 1486 1483 1480 1478 1476 1474 1472 1470 1469 1468 1468 1467 1468 1469 1470 1472 1474 1477 1480 1482 1484 1487 1490 1493 1497 1500 1504 1508 1512
1523 1522 1520 1517 1515 1512 1509 1506 1503 1500 1497 1495 1492 1488 1485 1482 1479 1477 1474 1472 1470 1468 1466 1465 1464 1464 1464 1464 1465 1467 1469 1471 1474 1477 1479 1481 1484 1487 1491 1494 1498 1502 1506
1522 1520 1518 1516 1513 1510 1508 1504 1502 1499 1496 1494 1491 1488 1485 1481 1478 1476 1473 1470 1468 1465 1463 1462 1461 1461 1461 1461 1462 1463 1464 1467 1469 1472 1474 1476 1479 1482 1485 1488 1492 1496 1500
1520 1518 1516 1514 1512 1509 1506 1503 1500 1498 1495 1492 1489 1486 1483 1480 1477 1474 1471 1468 1466 1463 1461 1459 1458 1458 1457 1458 1459 1459 1461 1462 1464 1466 1469 1471 1473 1476 1480 1483 1486 1490 1495
1519 1517 1514 1512 1510 1508 1505 1502 1499 1497 1494 1491 1488 1485 1482 1479 1475 1472 1469 1466 1464 1462 1459 1458 1457 1456 1455 1455 1455 1456 1457 1458 1460 1462 1464 1466 1468 1471 1475 1478 1481 1486 1489
1518 1515 1513 1511 1509 1506 1504 1501 1498 1496 1493 1489 1486 1483 1480 1477 1474 1471 1468 1465 1463 1460 1458 1457 1456 1455 1454 1454 1453 1453 1454 1455 1457 1458 1460 1461 1464 1466 1470 1473 1476 1480 1484
1516 1514 1512 1509 1507 1505 1502 1500 1497 1495 1492 1488 1485 1482 1479 1476 1472 1470 1467 1464 1462 1460 1458 1456 1455 1454 1453 1452 1452 1452 1452 1452 1453 1455 1456 1458 1460 1463 1465 1469 1472 1476 1480
1515 1513 1510 1508 1506 1504 1501 1499 1496 1493 1490 1487 1484 1481 1478 1475 1471 1469 1466 1464 1461 1459 1457 1455 1454 1453 1452 1451 1451 1451 1451 1450 1450 1451 1452 1454 1456 1458 1461 1465 1468 1471 1475
1513 1511 1509 1506 1504 1502 1500 1497 1495 1492 1489 1486 1483 1480 1476 1474 1471 1468 1465 1463 1461 1459 1457 1455 1454 1452 1451 1451 1450 1450 1450 1449 1449 1449 1449 1450 1452 1455 1457 1460 1464 1467 1471
1510 1508 1506 1504 1502 1500 1498 1495 1493 1490 1487 1485 1482 1479 1475 1473 1470 1467 1465 1463 1461 1459 1457 1455 1454 1452 1451 1450 1450 1449 1449 1448 1448 1447 1447 1448 1450 1452 1454 1457 1461 1464 1468
1507 1505 1504 1502 1500 1498 1496 1493 1491 1488 1486 1483 1481 1478 1475 1472 1469 1467 1464 1462 1460 1458 1457 1455 1454 1452 1451 1450 1449 1449 1448 1447 1447 1447 1447 1447 1448 1450 1452 1455 1459 1462 1467
1504 1502 1501 1499 1497 1495 1493 1491 1489 1486 1484 1482 1480 1477 1474 1471 1468 1466 1464 1462 1460 1458 1457 1455 1454 1452 1451 1450 1449 1449 1448 1447 1447 1446 1446 1447 1448 1450 1452 1454 1457 1461 1465
1500 1499 1497 1496 1494 1492 1490 1488 1486 1484 1482 1480 1478 1475 1473 1470 1468 1465 1463 1461 1460 1458 1457 1455 1454 1452 1451 1450 1449 1449 1448 1447 1446 1447 1447 1448 1449 1451 1453 1455 1458 1461 1464
1495 1494 1493 1491 1490 1488 1486 1484 1482 1480 1479 1477 1475 1473 1470 1469 1467 1464 1462 1461 1459 1457 1456 1455 1454 1453 1452 1451 1450 1449 1448 1447 1447 1447 1448 1449 1450 1451 1453 1456 1458 1461 1465
1490 1489 1488 1486 1485 1483 1482 1480 1478 1476 1474 1472 1471 1469 1467 1466 1464 1462 1460 1459 1458 1456 1455 1455 1454 1453 1452 1451 1450 1449 1448 1448 1448 1448 1448 1449 1450 1452 1454 1456 1459 1462 1465
1484 1483 1481 1480 1479 1477 1476 1474 1473 1472 1470 1468 1466 1465 1464 1462 1461 1460 1458 1457 1456 1455 1454 1453 1453 1452 1451 1451 1450 1449 1449 1448 1448 1449 1449 1450 1451 1453 1455 1457 1459 1462 1465
1478 1476 1475 1473 1472 1471 1470 1468 1467 1466 1465 1463 1462 1460 1459 1458 1457 1456 1455 1454 1453 1453 1452 1451 1451 1450 1450 1450 1449 1449 1449 1449 1449 1449 1449 1450 1452 1453 1455 1457 1459 1462 1465
1474 1471 1469 1467 1465 1464 1463 1462 1461 1460 1459 1458 1457 1455 1454 1454 1453 1452 1451 1450 1450 1450 1449 1448 1448 1448 1448 1448 1448 1448 1448 1448 1449 1449 1450 1451 1452 1454 1455 1457 1459 1462 1464
1470 1467 1464 1461 1459 1458 1456 1455 1454 1453 1453 1452 1451 1451 1450 1448 1447 1447 1446 1445 1445 1445 1445 1444 1444 1444 1444 1445 1445 1445 1446 1446 1447 1448 1449 1450 1452 1453 1455 1456 1458 1460 1463
1468 1465 1461 1458 1456 1454 1452 1450 1449 1448 1447 1446 1445 1445 1444 1443 1442 1442 1441 1440 1439 1439 1439 1439 1439 1439 1440 1440 1441 1442 1443 1444 1445 1446 1447 1448 1450 1451 1453 1455 1457 1459 1462
1466 1463 1459 1456 1453 1450 1448 1446 1444 1442 1441 1440 1439 1438 1437 1436 1435 1435 1435 1434 1433 1433 1433 1433 1433 1433 1434 1435 1436 1437 1438 1440 1441 1442 1444 1445 1447 1449 1451 1453 1455 1457 1459
1466 1462 1458 1455 1452 1448 1445 1443 1440 1438 1436 1435 1433 1432 1431 1429 1428 1428 1427 1427 1427 1426 1426 1426 1426 1426 1427 1428 1430 1431 1433 1434 1436 1438 1440 1441 1443 1445 1447 1449 1451 1454 1456
1466 1462 1458 1454 1451 1447 1444 1441 1438 1435 1433 1430 1428 1427 1426 1424 1422 1421 1421 1420 1419 1419 1419 1418 1418 1419 1420 1421 1422 1424 1426 1428 1430 1432 1434 1436 1438 1441 1443 1445 1447 1450 1452
1466 1462 1458 1454 1450 1447 1443 1439 1436 1433 1430 1427 1424 1422 1420 1418 1417 1415 1414 1413 1412 1411 1410 1410 1410 1411 1412 1412 1414 1415 1418 1420 1423 1426 1428 1430 1432 1435 1437 1440 1442 1444 1447
1465 1462 1458 1454 1450 1446 1442 1438 1435 1431 1427 1424 1421 1418 1415 1412 1410 1408 1407 1405 1404 1403 1402 1402 1402 1402 1403 1404 1405 1407 1409 1412 1415 1418 1421 1423 1425 1428 1430 1433 1436 1438 1441